Vertical_Velocity
0 -1 -0 -2 -2 -2 1 -0 -2 -2 -2 -3 -1 0 1 1 -3 -0 0 -0 2 -1 -2 -3 9 22 13 4 1 -2 -2 -0 2 0 2 -8 -1 4 -3 -1 38 2 -4
-1 -0 -2 1 -4 -1 0 0 -1 -3 -2 -4 -1 -1 1 -0 -3 3 2 1 -3 6 15 -7 0 -3 18 1 8 -2 2 3 2 3 2 -9 -3 -4 7 2 9 -0 0
-0 -1 -1 -2 -3 1 1 -0 -3 -3 -1 -5 -2 1 3 -1 -3 5 2 1 -6 2 26 17 0 7 8 5 -4 4 1 2 3 5 7 -3 1 4 2 3 -2 -1 1
-1 -1 -0 -4 1 1 1 -1 -3 -2 -2 -1 -0 -0 1 -1 -3 6 0 1 -1 2 9 -1 3 3 12 5 -0 2 0 3 -0 -3 -3 -8 2 5 -2 4 -1 -3 -1
-1 -0 -2 -0 1 1 -0 -1 -2 -2 -0 -2 -3 -2 1 0 6 3 0 1 0 0 6 18 9 -0 8 4 -1 0 -3 -4 -1 1 -4 -4 14 -4 -0 -3 1 1 -5
-2 -1 -1 0 1 1 -0 -1 -3 -1 -1 -3 -1 0 1 1 -1 2 -2 2 0 -1 10 3 7 3 1 4 4 2 -2 -2 -0 -9 -9 -0 5 -3 12 -0 8 6 -16
-1 -1 1 -0 1 0 -0 -3 -2 2 -2 -1 -0 -2 1 1 1 1 -1 3 -2 -4 11 5 8 4 -1 3 1 0 3 3 2 0 -3 8 3 2 11 -5 -4 -0 6
-1 2 1 -1 -1 -0 -1 -1 -4 1 0 -0 0 -0 -0 2 3 2 2 -0 -1 1 5 7 7 3 1 0 2 0 0 2 6 5 14 -1 -6 8 4 -2 2 4 5
0 2 -1 -2 -2 0 -1 0 -2 -2 -2 1 0 -1 1 0 3 2 -2 1 2 3 4 8 4 3 -1 -2 -1 1 -1 9 -4 -1 -7 4 8 16 6 15 -2 -1 5
-0 1 -1 -1 0 0 -0 -0 -1 -1 3 -2 -0 1 -2 1 3 2 1 1 -3 3 2 3 8 -0 -1 -3 -2 4 1 -1 1 10 -1 12 8 4 20 22 6 2 4
1 -0 0 -1 -0 -1 1 -1 1 -1 -2 0 -0 -1 -0 0 4 2 2 -1 2 -2 1 1 7 3 1 0 -1 1 -0 0 2 4 13 5 12 18 16 13 13 10 2
-0 -0 -1 0 1 -1 0 -0 1 -1 -1 -1 -1 2 2 -1 -1 2 2 2 1 -2 2 3 0 2 2 3 0 3 -4 -2 -2 7 7 1 7 7 7 10 19 3 4
-0 -2 -0 0 -1 1 1 -1 0 0 -2 -0 -0 1 1 -3 1 1 -1 1 2 -1 -1 -1 3 -1 1 3 1 1 -5 3 0 -2 2 2 6 3 4 3 5 4 5
-1 -1 -2 -0 -1 1 -1 -1 1 0 0 1 0 1 -2 0 3 4 4 3 1 2 1 -2 -2 -2 2 0 3 3 9 2 0 -7 -2 -1 3 4 7 2 7 4 6
-2 -2 -5 -3 -1 -1 -0 -1 -4 -3 -0 0 1 1 -3 -1 5 1 3 6 4 -3 -2 3 3 -1 -4 -2 2 0 -1 -2 -1 -0 -3 -2 1 1 2 4 5 4 2
-1 -2 -3 -3 -2 -1 -0 -1 -2 -1 2 1 -3 -2 4 5 2 1 2 2 0 -4 -2 -2 -0 -1 -0 3 -3 -1 -1 3 3 3 -1 1 -0 0 1 1 4 3 2
-1 -3 -4 -2 -3 -3 -2 -1 -2 -0 2 2 0 -2 -5 -1 -0 0 0 5 -4 -9 5 5 4 3 5 -3 -4 0 3 1 -2 6 6 4 -2 -2 -1 0 3 3 3
-0 -1 -3 -2 -3 -2 -1 -3 -2 -0 1 2 -1 -1 -1 -3 -3 -0 -1 4 -4 2 2 5 4 4 0 3 2 2 3 -1 -0 -1 -2 0 1 1 1 2 -1 2 1
-2 -2 -1 -2 -4 -2 -2 -3 -2 -2 -1 0 -0 -1 0 1 -2 -1 0 -2 0 -2 -1 -2 -3 -4 -3 -4 -4 -0 3 -3 -1 -1 -3 -4 -3 0 -1 0 1 2 1
-3 -1 0 -1 -2 -3 -1 -1 -2 -4 -2 -2 -2 -1 -1 -2 -1 -0 -3 -1 -1 -2 -1 -0 -1 1 2 4 4 -4 -3 -0 -2 -0 -2 -2 -2 1 -1 -1 -0 -2 -1
-2 -2 0 -3 -3 -4 -3 -2 -2 -1 -0 -2 -2 -3 -3 -1 1 -1 -0 -1 -2 -1 -1 -0 -1 2 0 0 2 1 -4 -3 0 -2 -0 -2 -2 -5 -3 -4 -3 -1 -3
-1 -1 0 -2 -0 -1 -3 -3 -2 -0 -1 -2 -3 -2 -2 -4 -5 -3 -2 -2 -1 -2 -1 -1 -0 -1 -2 -5 -3 -4 -5 -0 -3 -5 -3 -3 -1 -1 -3 -4 -4 -4 -3
-0 1 -0 0 0 -0 -0 -2 -2 -2 -2 -3 -3 -4 -4 -2 -1 -4 -6 -5 -3 -4 -6 -6 -4 -3 -3 -3 -1 -1 1 -1 -2 -3 -4 -2 -6 -4 -3 -3 -0 -2 -2
-1 -1 -0 -0 -1 -2 -1 -0 -0 -1 -1 -1 -4 -3 -4 -4 -5 -5 -3 -2 -3 -3 -3 -3 -2 -1 -4 -6 -6 -6 -7 -8 -5 -4 -2 1 -4 -4 -7 -5 -2 -3 -1
0 -2 -2 -1 0 -1 -2 -2 -2 -1 -0 -3 -2 -2 -2 -3 -3 -3 -4 -4 -4 -5 -7 -6 -4 -3 -4 -4 -4 -4 -5 -4 -2 -2 -3 -4 -2 -1 -1 1 -2 -5 -5
-1 1 1 1 1 1 1 -1 -3 -2 -1 -0 0 -1 -3 -3 -3 -4 -4 -3 -3 -5 -5 -5 -5 -7 -7 -4 -3 -4 -4 -4 -5 -5 -5 -5 -5 -5 -6 -6 -2 -0 -4
Height
5668 5660 5650 5639 5628 5616 5603 5590 5576 5561 5545 5530 5516 5506 5497 5490 5482 5475 5466 5459 5454 5449 5447 5444 5443 5447 5454 5469 5489 5507 5525 5543 5558 5572 5584 5597 5611 5628 5641 5655 5667 5682 5695
5667 5659 5649 5639 5627 5615 5604 5591 5577 5562 5547 5532 5518 5508 5499 5493 5486 5479 5472 5465 5461 5457 5455 5454 5454 5456 5467 5481 5500 5516 5533 5549 5564 5575 5588 5600 5613 5625 5640 5654 5666 5682 5695
5667 5658 5649 5639 5628 5617 5605 5592 5578 5564 5549 5534 5521 5512 5504 5497 5491 5485 5478 5471 5469 5465 5466 5467 5467 5471 5481 5495 5510 5524 5540 5553 5565 5580 5592 5603 5617 5631 5645 5656 5667 5681 5694
5667 5659 5650 5640 5629 5619 5607 5594 5581 5567 5552 5538 5525 5516 5508 5502 5496 5492 5486 5479 5476 5476 5478 5480 5481 5486 5496 5507 5520 5533 5546 5558 5571 5583 5594 5606 5620 5631 5643 5656 5669 5682 5693
5667 5660 5651 5642 5632 5621 5609 5597 5584 5570 5557 5544 5530 5519 5513 5507 5503 5499 5494 5488 5486 5487 5488 5494 5496 5500 5509 5519 5531 5543 5555 5566 5576 5587 5599 5610 5623 5631 5642 5656 5670 5682 5691
5668 5661 5653 5643 5634 5624 5613 5601 5588 5575 5563 5550 5537 5525 5520 5514 5509 5507 5503 5498 5495 5497 5499 5503 5508 5514 5522 5533 5543 5554 5564 5573 5583 5594 5602 5616 5626 5633 5646 5659 5674 5683 5691
5670 5663 5655 5646 5637 5628 5617 5605 5593 5582 5570 5558 5546 5533 5526 5521 5517 5514 5512 5509 5506 5507 5508 5513 5519 5525 5533 5544 5553 5562 5571 5580 5590 5599 5608 5620 5626 5637 5649 5663 5673 5682 5693
5671 5665 5658 5649 5641 5632 5621 5610 5600 5589 5578 5567 5556 5543 5533 5528 5525 5522 5521 5520 5516 5516 5518 5523 5528 5535 5543 5551 5561 5569 5578 5585 5592 5602 5615 5622 5631 5642 5652 5663 5673 5683 5693
5674 5668 5660 5653 5644 5635 5626 5616 5606 5595 5585 5575 5565 5554 5544 5537 5533 5530 5529 5528 5528 5527 5528 5533 5538 5545 5551 5558 5567 5575 5582 5588 5597 5611 5621 5628 5636 5644 5652 5663 5673 5683 5691
5676 5670 5664 5657 5649 5641 5632 5623 5614 5604 5594 5584 5575 5565 5557 5548 5542 5539 5538 5537 5537 5537 5538 5542 5547 5554 5560 5567 5574 5580 5586 5594 5602 5612 5621 5629 5637 5646 5655 5663 5672 5680 5687
5678 5675 5669 5661 5654 5646 5638 5630 5621 5612 5603 5593 5584 5576 5567 5561 5554 5549 5547 5546 5547 5547 5548 5551 5555 5561 5567 5574 5579 5585 5591 5595 5604 5614 5623 5631 5639 5645 5654 5662 5669 5678 5685
5683 5679 5673 5666 5659 5652 5645 5638 5630 5621 5612 5604 5596 5588 5580 5572 5566 5560 5557 5555 5555 5555 5558 5560 5563 5567 5573 5578 5583 5589 5595 5600 5606 5616 5625 5631 5637 5643 5651 5658 5666 5673 5680
5688 5683 5677 5671 5665 5658 5652 5645 5638 5631 5622 5614 5607 5600 5593 5585 5580 5575 5569 5565 5564 5565 5567 5570 5571 5575 5579 5584 5588 5593 5600 5604 5610 5616 5624 5632 5638 5643 5650 5657 5665 5672 5677
5692 5687 5682 5675 5670 5664 5658 5651 5645 5639 5632 5625 5618 5612 5605 5599 5594 5590 5585 5580 5576 5576 5576 5577 5579 5582 5585 5589 5593 5598 5603 5607 5612 5619 5626 5632 5637 5642 5649 5655 5661 5667 5674
5696 5691 5686 5681 5676 5670 5664 5658 5652 5646 5641 5635 5629 5622 5616 5611 5607 5602 5598 5595 5592 5587 5584 5584 5586 5589 5592 5594 5596 5600 5604 5609 5614 5620 5627 5633 5638 5642 5646 5653 5657 5662 5668
5699 5695 5691 5686 5681 5676 5670 5665 5659 5653 5647 5642 5638 5633 5628 5623 5618 5614 5610 5606 5602 5598 5594 5595 5595 5596 5598 5599 5602 5604 5607 5611 5616 5621 5626 5631 5636 5640 5645 5650 5654 5658 5663
5703 5699 5695 5691 5687 5681 5676 5672 5666 5660 5654 5650 5646 5642 5637 5632 5628 5624 5621 5617 5612 5608 5608 5608 5607 5606 5605 5605 5607 5609 5611 5614 5617 5619 5623 5628 5633 5637 5641 5645 5648 5652 5656
5706 5703 5699 5696 5691 5687 5682 5677 5673 5668 5663 5657 5653 5649 5646 5642 5638 5634 5630 5627 5623 5622 5619 5617 5616 5615 5613 5613 5614 5614 5615 5617 5618 5621 5623 5626 5628 5631 5634 5637 5641 5644 5646
5709 5706 5703 5700 5696 5692 5688 5684 5680 5675 5670 5666 5661 5657 5653 5649 5646 5643 5639 5635 5632 5629 5628 5627 5626 5625 5625 5625 5621 5621 5620 5622 5622 5622 5623 5625 5626 5628 5629 5631 5632 5635 5636
5711 5709 5706 5703 5700 5696 5692 5688 5685 5681 5677 5673 5669 5664 5660 5656 5653 5651 5647 5644 5642 5640 5638 5636 5635 5633 5630 5628 5628 5629 5628 5627 5626 5625 5626 5626 5626 5626 5626 5626 5626 5627 5628
5713 5711 5709 5706 5703 5700 5696 5692 5689 5685 5682 5679 5675 5671 5667 5664 5661 5657 5654 5652 5649 5646 5645 5643 5641 5639 5638 5638 5635 5633 5632 5630 5628 5627 5626 5625 5625 5624 5623 5622 5621 5620 5620
5714 5713 5711 5708 5705 5702 5699 5695 5692 5689 5686 5683 5680 5676 5673 5670 5666 5663 5660 5657 5655 5653 5650 5648 5645 5643 5641 5639 5637 5636 5634 5632 5630 5629 5627 5625 5623 5621 5619 5618 5616 5615 5614
5714 5713 5711 5709 5706 5704 5701 5698 5695 5692 5689 5686 5683 5680 5676 5673 5669 5666 5664 5661 5658 5656 5654 5652 5649 5646 5644 5642 5640 5637 5634 5632 5630 5627 5625 5622 5620 5617 5615 5612 5608 5606 5604
5713 5712 5711 5709 5707 5705 5702 5699 5697 5694 5691 5688 5685 5682 5678 5675 5672 5669 5666 5663 5661 5658 5656 5653 5650 5647 5645 5641 5638 5635 5631 5628 5625 5622 5619 5616 5613 5610 5606 5602 5599 5595 5592
5713 5712 5710 5709 5707 5704 5702 5700 5697 5694 5692 5688 5685 5682 5679 5676 5673 5670 5667 5664 5661 5659 5656 5652 5649 5645 5641 5638 5636 5632 5629 5624 5621 5617 5613 5609 5604 5599 5595 5590 5586 5582 5579
5712 5710 5709 5707 5705 5703 5701 5699 5696 5694 5691 5687 5685 5682 5678 5675 5673 5670 5667 5663 5660 5657 5653 5650 5646 5643 5639 5635 5630 5626 5621 5617 5613 5608 5603 5598 5593 5588 5584 5580 5575 5571 5567